Regional Weather Roundup
Issued by NWS

Home | Current Version | Previous Version | Text Only | Print | Product List | Glossary Off
Versions: 1 2 3 4 5 6 7 8 9 10 11 12 13 14 15 16 17 18 19 20 21 22 23 24 25 26 27 28 29 30 31 32 33 34 35 36 37 38 39 40 41 42 43 44 45 46 47 48 49 50

813
ASUS43 KFSD 290010
RWRSD

WEATHER ROUNDUP FOR SOUTH DAKOTA
NATIONAL WEATHER SERVICE SIOUX FALLS SD
700 PM CDT TUE MAR 28 2017

NOTE: "FAIR" INDICATES FEW OR NO CLOUDS BELOW 12,000 FEET WITH NO
SIGNIFICANT WEATHER AND/OR OBSTRUCTIONS TO VISIBILITY.


SDZ001>005-009-010-012>017-290100-
NORTHWEST AND NORTH CENTRAL SOUTH DAKOTA

CITY           SKY/WX    TMP DP  RH WIND       PRES   REMARKS
BUFFALO          N/A     47  44  90 SW10      30.00R
FAITH            N/A     46  45  96 MISG      30.10R
MOBRIDGE       CLOUDY    56  38  50 SE9       30.08R
$$

SDZ012>016-024>037-041>051-057-063-072>074-290100-
SOUTHWEST AND SOUTH CENTRAL SOUTH DAKOTA

CITY           SKY/WX    TMP DP  RH WIND       PRES   REMARKS
RAPID CTY ARPT LGT RAIN  45  42  89 S3        30.08R
PIERRE         CLOUDY    52  43  71 W9        30.09R
CUSTER         LGT RAIN  38  35  89 N7        30.07R
ELLSWORTH AFB  CLOUDY    45  45 100 CALM      30.08
PHILIP         LGT RAIN  46  45  96 E9        30.12R FOG
PINE RIDGE     LGT RAIN  44  42  93 E9        30.09R
SPEARFISH      FAIR      46  37  71 E8        30.08R
WINNER         LGT RAIN  48  41  76 S8        30.12R
$$

SDZ004>011-016>023-039-040-290100-
NORTHEAST SOUTH DAKOTA

CITY           SKY/WX    TMP DP  RH WIND       PRES   REMARKS
ABERDEEN       CLOUDY    55  33  43 E8        30.13R
WATERTOWN      CLOUDY    54  38  54 E7        30.12R
BROOKINGS      CLOUDY    56  36  47 E9        30.11
SISSETON         N/A     56  41  57 E6        30.13S
$$

SDZ017-020-022-023-036>040-048>070-290100-
SOUTHEAST SOUTH DAKOTA

CITY           SKY/WX    TMP DP  RH WIND       PRES   REMARKS
SIOUX FALLS    CLOUDY    57  38  48 E12       30.11R
HURON          PTCLDY    57  37  47 SE5       30.11R
CHAMBERLAIN    CLOUDY    57  36  45 E8        30.10R
MITCHELL       MOCLDY    58  37  45 E9        30.11R
YANKTON        MOCLDY    57  37  47 NE10      30.08R
$$

ABBREVIATIONS USED IN REMARKS
   TC - TEMPERATURE IN CELSIUS
  WCI - WIND CHILL INDEX
   HX - HEAT INDEX
  VSB - VISIBILITY





USA.gov is the U.S. government's official web portal to all federal, state and local government web resources and services.